[[{"header":{"parameterUnit":"m.s-1","parameterCategory":1,"la1":30.2991,"la2":30.254,"lo1":-89.0895,"lo2":-89.0444,"dy":0.0017,"dx":0.0017,"nx":28,"ny":28,"refTime":"2025-09-11T03:00:00:Z","depth":0,"parameterNumber":2,"parameterNumberName":"U-component_of_WINDS"},"data":[0,0,0,0,0,0,0,0,0,0,0,0,0,0,0,0,0,0,0,0,0,0,0,0,0,0,0,0,0,0,0,0,0,0,0,0,0,0,0,0,0,0,0,0,0,0,0,0,0,0,0,0,0,0,0,0,0,0,-2.8272,-2.8271,0,-2.8207,-2.8206,-2.8205,-2.8143,-2.8142,-2.8142,-2.8141,-2.8075,-2.8074,-2.8073,0,0,0,0,0,0,0,0,0,0,0,0,0,-2.8344,-2.8343,-2.8272,-2.8271,-2.827,-2.8207,-2.8206,-2.8205,-2.8143,-2.8142,-2.8141,-2.814,-2.8075,-2.8074,-2.8073,0,0,0,0,0,0,0,0,0,0,0,0,0,-2.83,-2.8343,-2.8272,-2.8232,-2.8228,-2.8207,-2.8206,-2.8205,-2.8143,-2.8142,-2.8141,-2.814,-2.8076,-2.8074,-2.8073,-2.8087,0,0,-2.8068,-2.8067,0,0,0,0,0,0,0,0,-2.8302,-2.8297,-2.8239,-2.8235,-2.823,-2.8182,-2.8207,-2.8165,-2.8144,-2.8175,-2.8141,-2.8139,-2.8111,-2.8107,-2.8097,-2.8084,-2.8081,-2.8068,-2.8067,-2.8066,-2.8066,0,0,0,0,0,0,0,-2.8305,-2.8299,-2.8246,-2.8238,-2.8233,-2.8217,-2.821,-2.8199,-2.8151,-2.8173,-2.8168,-2.8161,-2.8109,-2.8099,-2.8095,-2.808,-2.8068,-2.8066,-2.8065,-2.8065,-2.8076,-2.8077,0,0,0,0,0,0,-2.8315,-2.8302,-2.8248,-2.8244,-2.8264,-2.8217,-2.8209,-2.8198,-2.8151,-2.8142,-2.8162,-2.8158,-2.8102,-2.8097,-2.8093,-2.8107,-2.8066,-2.8065,-2.8064,-2.8075,-2.8076,-2.8078,0,0,0,0,0,0,-2.8316,-2.831,-2.8251,-2.8272,-2.8263,-2.8217,-2.8206,-2.8198,-2.8188,-2.8143,-2.8134,-2.8161,-2.8101,-2.8095,-2.8089,-2.8104,-2.8064,-2.8063,-2.8073,-2.8075,-2.8077,-2.8136,0,0,0,0,0,0,-2.8319,-2.8311,-2.8316,-2.8273,-2.8262,-2.8248,-2.8207,-2.8197,-2.8185,-2.818,-2.8139,-2.8131,-2.81,-2.8092,-2.8087,-2.8101,-2.8061,-2.8072,-2.8074,-2.8076,-2.8132,-2.8139,-2.8145,0,0,0,0,0,-2.8321,-2.8335,-2.8316,-2.831,-2.8267,-2.8249,-2.8243,-2.8206,-2.8187,-2.8191,-2.8162,-2.8133,-2.8103,-2.8091,-2.8086,-2.81,-2.8071,-2.8074,-2.8076,-2.8129,-2.8138,-2.8145,0,0,0,0,0,0,-2.8381,-2.8328,-2.8307,-2.8307,-2.8283,-2.8239,-2.8243,-2.8216,-2.8197,-2.8193,-2.8148,-2.8139,-2.8139,-2.8118,-2.8107,-2.8112,-2.8083,-2.8085,-2.8125,-2.8133,-2.8139,-2.8144,-2.806,0,0,0,0,0,-2.8394,-2.8384,-2.8338,-2.8342,-2.8331,-2.829,-2.828,-2.8254,-2.8227,-2.8216,-2.8187,-2.8163,-2.8148,-2.8139,-2.8123,-2.8129,-2.812,-2.8136,-2.8142,-2.8148,-2.815,-2.8153,-2.816,-2.8087,-2.8087,-2.8086,0,0,-2.8421,-2.8391,-2.8387,-2.8354,-2.8332,-2.8322,-2.8281,-2.8273,-2.8265,-2.8215,-2.8208,-2.8186,-2.8156,-2.8156,-2.8155,-2.8139,-2.8168,-2.8151,-2.8156,-2.8155,-2.8157,-2.8164,-2.817,-2.8088,-2.8088,-2.8088,0,0,-2.8466,-2.8442,-2.8443,-2.8422,-2.839,-2.8362,-2.8362,-2.8322,-2.8305,-2.8297,-2.826,-2.8251,-2.8226,-2.8206,-2.8193,-2.8231,-2.8204,-2.8227,-2.8262,-2.8265,-2.8271,-2.8276,-2.8291,-2.8296,-2.8229,-2.823,-2.823,0,-2.8503,-2.8487,-2.8447,-2.8441,-2.8428,-2.8382,-2.8383,-2.8365,-2.8329,-2.8322,-2.8304,-2.8273,-2.8249,-2.8245,-2.8255,-2.8245,-2.8245,-2.8232,-2.8273,-2.8278,-2.8282,-2.8295,-2.8301,-2.8233,-2.8232,-2.8232,-2.8232,0,-2.8536,-2.8525,-2.853,-2.8497,-2.8484,-2.8482,-2.8442,-2.8434,-2.8409,-2.8384,-2.8377,-2.8347,-2.8324,-2.8321,-2.8296,-2.8314,-2.8305,-2.8281,-2.8252,-2.8293,-2.8305,-2.8309,-2.8237,-2.8236,-2.8235,-2.8234,0,0,-2.8616,-2.8561,-2.8563,-2.8548,-2.8509,-2.8501,-2.8497,-2.8475,-2.8469,-2.8446,-2.8443,-2.8423,-2.8401,-2.8386,-2.8359,-2.8362,-2.8396,-2.8337,-2.8336,-2.835,-2.8414,-2.8433,-2.844,-2.8377,-2.8378,-2.8378,-2.8417,0,-2.8654,-2.8644,-2.8609,-2.861,-2.86,-2.8557,-2.8554,-2.853,-2.8506,-2.8495,-2.8468,-2.8456,-2.8427,-2.8418,-2.8419,-2.8391,-2.8408,-2.8388,-2.8374,-2.8374,-2.8384,-2.8446,-2.8466,-2.8504,-2.8422,-2.8422,-2.8423,0,-2.8698,-2.8678,-2.8679,-2.8641,-2.8636,-2.8633,-2.8611,-2.86,-2.8573,-2.8555,-2.8539,-2.8509,-2.8504,-2.8476,-2.8468,-2.8455,-2.8447,-2.8433,-2.8434,-2.8432,-2.8401,-2.8446,-2.8515,-2.8521,-2.843,-2.8429,-2.8429,0,-2.8758,-2.8731,-2.8728,-2.8716,-2.8672,-2.8672,-2.8653,-2.8625,-2.8614,-2.8594,-2.8587,-2.8568,-2.8557,-2.8543,-2.8508,-2.8491,-2.8505,-2.8474,-2.8491,-2.8492,-2.8497,-2.8497,-2.8566,-2.8491,-2.849,-2.849,-2.849,0,-2.8805,-2.8807,-2.8754,-2.8752,-2.8754,-2.8713,-2.8716,-2.8693,-2.8668,-2.8662,-2.8623,-2.8619,-2.8573,-2.8563,-2.8536,-2.8535,-2.853,-2.8516,-2.8509,-2.852,-2.8522,-2.8515,-2.8512,-2.8492,-2.8491,-2.8491,-2.8491,0,-2.8872,-2.8836,-2.883,-2.8789,-2.8779,-2.8782,-2.8747,-2.8744,-2.8718,-2.8711,-2.8707,-2.8666,-2.8653,-2.8617,-2.8594,-2.8576,-2.8583,-2.8569,-2.8592,-2.8588,-2.8608,-2.8607,-2.8675,-2.8682,-2.8602,-2.8603,-2.8603,0,-2.8905,-2.8905,-2.8865,-2.8858,-2.8841,-2.883,-2.8819,-2.8779,-2.8769,-2.8739,-2.874,-2.8724,-2.8708,-2.8689,-2.8658,-2.8641,-2.8627,-2.8652,-2.8624,-2.8635,-2.8628,-2.8629,-2.863,-2.8658,-2.8659,-2.866,-2.8661,0,-2.8967,-2.895,-2.8935,-2.8915,-2.8903,-2.8886,-2.8866,-2.8862,-2.8817,-2.8809,-2.8794,-2.8783,-2.876,-2.8744,-2.8722,-2.8704,-2.8676,-2.867,-2.8673,-2.8685,-2.8699,-2.8693,-2.861,-2.8669,-2.8668,-2.8667,-2.8667,-2.8667,-2.9018,-2.9018,-2.8989,-2.8975,-2.8956,-2.8938,-2.8934,-2.8907,-2.8895,-2.8873,-2.885,-2.8839,-2.8812,-2.878,-2.8764,-2.8755,-2.874,-2.8744,-2.8746,-2.8748,-2.8753,-2.87,-2.8751,-2.875,-2.875,-2.875,-2.875,0,-2.908,-2.906,-2.9047,-2.902,-2.9009,-2.8983,-2.896,-2.8953,-2.8943,-2.8921,-2.8907,-2.8891,-2.8876,-2.8844,-2.8827,-2.8826,-2.8812,-2.8823,-2.8823,-2.8819,-2.8767,-2.8766,-2.8834,-2.8834,-2.8834,-2.8834,-2.8834,-2.8834,-2.9111,-2.9108,-2.9088,-2.9076,-2.9055,-2.9043,-2.9033,-2.9017,-2.8999,-2.8983,-2.8971,-2.895,-2.8924,-2.8904,-2.889,-2.8881,-2.8877,-2.8891,-2.8879,-2.8831,-2.8823,-2.8815,-2.8814,-2.8891,-2.8891,-2.8931,-2.8932,-2.8932]},{"header":{"parameterUnit":"m.s-1","parameterCategory":1,"la1":30.2991,"la2":30.254,"lo1":-89.0895,"lo2":-89.0444,"dy":0.0017,"dx":0.0017,"nx":28,"ny":28,"refTime":"2025-09-11T03:00:00:Z","depth":0,"parameterNumber":3,"parameterNumberName":"V-component_of_WINDS"},"data":[0,0,0,0,0,0,0,0,0,0,0,0,0,0,0,0,0,0,0,0,0,0,0,0,0,0,0,0,0,0,0,0,0,0,0,0,0,0,0,0,0,0,0,0,0,0,0,0,0,0,0,0,0,0,0,0,0,0,-0.8073,-0.8073,0,-0.81,-0.81,-0.81,-0.8127,-0.8127,-0.8128,-0.8128,-0.8155,-0.8156,-0.8156,0,0,0,0,0,0,0,0,0,0,0,0,0,-0.8047,-0.8047,-0.8073,-0.8073,-0.8074,-0.8099,-0.81,-0.81,-0.8127,-0.8127,-0.8128,-0.8128,-0.8155,-0.8156,-0.8156,0,0,0,0,0,0,0,0,0,0,0,0,0,-0.8064,-0.8047,-0.8073,-0.809,-0.8092,-0.8099,-0.81,-0.81,-0.8127,-0.8127,-0.8128,-0.8128,-0.8155,-0.8156,-0.8156,-0.8149,0,0,-0.8158,-0.8158,0,0,0,0,0,0,0,0,-0.8063,-0.8065,-0.8087,-0.8089,-0.8091,-0.8111,-0.8101,-0.8117,-0.8127,-0.8114,-0.8128,-0.8129,-0.814,-0.8142,-0.8146,-0.815,-0.8151,-0.8158,-0.8158,-0.8159,-0.8159,0,0,0,0,0,0,0,-0.8062,-0.8064,-0.8083,-0.8087,-0.809,-0.8097,-0.81,-0.8104,-0.8123,-0.8115,-0.8117,-0.812,-0.8141,-0.8145,-0.8147,-0.8152,-0.8158,-0.8159,-0.8159,-0.8159,-0.8154,-0.8154,0,0,0,0,0,0,-0.8058,-0.8063,-0.8083,-0.8084,-0.8078,-0.8097,-0.81,-0.8104,-0.8123,-0.8127,-0.8119,-0.8121,-0.8144,-0.8146,-0.8148,-0.8142,-0.8159,-0.8159,-0.816,-0.8155,-0.8154,-0.8154,0,0,0,0,0,0,-0.8057,-0.8059,-0.8082,-0.8074,-0.8077,-0.8097,-0.81,-0.8104,-0.8108,-0.8127,-0.813,-0.8119,-0.8144,-0.8147,-0.8149,-0.8143,-0.816,-0.816,-0.8155,-0.8155,-0.8154,-0.813,0,0,0,0,0,0,-0.8056,-0.8059,-0.8056,-0.8074,-0.8078,-0.8082,-0.81,-0.8104,-0.8109,-0.8111,-0.8128,-0.8131,-0.8145,-0.8148,-0.815,-0.8145,-0.8161,-0.8156,-0.8155,-0.8154,-0.8132,-0.8129,-0.8126,0,0,0,0,0,-0.8055,-0.8048,-0.8056,-0.8058,-0.8074,-0.8082,-0.8084,-0.81,-0.8108,-0.8106,-0.8118,-0.8131,-0.8144,-0.8148,-0.815,-0.8145,-0.8156,-0.8155,-0.8154,-0.8133,-0.8129,-0.8126,0,0,0,0,0,0,-0.8028,-0.805,-0.8059,-0.8057,-0.8068,-0.8086,-0.8084,-0.8095,-0.8103,-0.8105,-0.8124,-0.8128,-0.8128,-0.8137,-0.8141,-0.814,-0.8152,-0.8151,-0.8135,-0.8132,-0.8129,-0.8128,-0.8161,0,0,0,0,0,-0.8022,-0.8026,-0.8045,-0.8042,-0.8046,-0.8064,-0.8068,-0.8079,-0.809,-0.8095,-0.8107,-0.8118,-0.8124,-0.8128,-0.8135,-0.8133,-0.8138,-0.813,-0.8128,-0.8125,-0.8125,-0.8126,-0.8124,-0.815,-0.815,-0.815,0,0,-0.801,-0.8022,-0.8023,-0.8037,-0.8046,-0.805,-0.8067,-0.807,-0.8074,-0.8095,-0.8099,-0.8108,-0.8121,-0.8122,-0.8122,-0.8129,-0.8119,-0.8124,-0.8122,-0.8123,-0.8125,-0.8122,-0.812,-0.8149,-0.8149,-0.815,0,0,-0.7989,-0.7998,-0.7998,-0.8007,-0.802,-0.8033,-0.8032,-0.8049,-0.8057,-0.806,-0.8077,-0.8081,-0.8092,-0.8101,-0.8107,-0.8092,-0.8104,-0.8094,-0.808,-0.8081,-0.8079,-0.8077,-0.8074,-0.8072,-0.8093,-0.8093,-0.8093,0,-0.7972,-0.7979,-0.7996,-0.7998,-0.8005,-0.8024,-0.8024,-0.8032,-0.8047,-0.8051,-0.8058,-0.8073,-0.8083,-0.8086,-0.8083,-0.8086,-0.8088,-0.8092,-0.8078,-0.8076,-0.8075,-0.8072,-0.807,-0.8091,-0.8092,-0.8092,-0.8092,0,-0.7958,-0.7962,-0.796,-0.7975,-0.7981,-0.7982,-0.7999,-0.8003,-0.8014,-0.8026,-0.803,-0.8043,-0.8054,-0.8055,-0.8066,-0.8061,-0.8065,-0.8074,-0.8087,-0.8071,-0.8068,-0.8067,-0.809,-0.809,-0.809,-0.8091,0,0,-0.7922,-0.7947,-0.7946,-0.7954,-0.7971,-0.7975,-0.7977,-0.7988,-0.7992,-0.8002,-0.8005,-0.8014,-0.8024,-0.8031,-0.8043,-0.8043,-0.8033,-0.8053,-0.8054,-0.805,-0.803,-0.8024,-0.8022,-0.804,-0.804,-0.804,-0.803,0,-0.7906,-0.7912,-0.7927,-0.7929,-0.7934,-0.7953,-0.7956,-0.7967,-0.7978,-0.7984,-0.7996,-0.8003,-0.8014,-0.8019,-0.802,-0.8033,-0.8029,-0.8034,-0.8045,-0.8045,-0.8043,-0.802,-0.8013,-0.8002,-0.8028,-0.8028,-0.8028,0,-0.7888,-0.7898,-0.79,-0.7918,-0.7921,-0.7923,-0.7935,-0.794,-0.7954,-0.7962,-0.797,-0.7983,-0.7988,-0.7999,-0.8006,-0.801,-0.8015,-0.8022,-0.8022,-0.8025,-0.8036,-0.8024,-0.7999,-0.7998,-0.8026,-0.8026,-0.8026,0,-0.7864,-0.7877,-0.7881,-0.7886,-0.7907,-0.7909,-0.7917,-0.7931,-0.7937,-0.7948,-0.7952,-0.7963,-0.7969,-0.7977,-0.7993,-0.7999,-0.8,-0.8011,-0.8008,-0.8007,-0.8008,-0.8008,-0.7986,-0.8009,-0.8009,-0.8009,-0.8009,0,-0.7845,-0.7846,-0.787,-0.7872,-0.7875,-0.7893,-0.7894,-0.7905,-0.7917,-0.7923,-0.7939,-0.7944,-0.7964,-0.7971,-0.7984,-0.7989,-0.7991,-0.7999,-0.8003,-0.7998,-0.7997,-0.8003,-0.8004,-0.8008,-0.8009,-0.8009,-0.8009,0,-0.7819,-0.7835,-0.784,-0.786,-0.7865,-0.7866,-0.7883,-0.7886,-0.7898,-0.7905,-0.7907,-0.7927,-0.7936,-0.7953,-0.7967,-0.7975,-0.7979,-0.7984,-0.7974,-0.7977,-0.7973,-0.7973,-0.7954,-0.7953,-0.7976,-0.7975,-0.7975,0,-0.7807,-0.7808,-0.7828,-0.7833,-0.7842,-0.7849,-0.7855,-0.7873,-0.7879,-0.7895,-0.7897,-0.7908,-0.7918,-0.7932,-0.7948,-0.7959,-0.7965,-0.7958,-0.7967,-0.7963,-0.7967,-0.7967,-0.7968,-0.7956,-0.7956,-0.7955,-0.7955,0,-0.7785,-0.7793,-0.7801,-0.7813,-0.782,-0.783,-0.7841,-0.7844,-0.7864,-0.7871,-0.7881,-0.7888,-0.7903,-0.7914,-0.7928,-0.7938,-0.795,-0.7952,-0.7952,-0.7948,-0.7943,-0.7947,-0.797,-0.7953,-0.7953,-0.7953,-0.7953,-0.7953,-0.7766,-0.7769,-0.7784,-0.7793,-0.7803,-0.7813,-0.7818,-0.7831,-0.7839,-0.7853,-0.7863,-0.7873,-0.7887,-0.7907,-0.7916,-0.7924,-0.793,-0.793,-0.793,-0.793,-0.7929,-0.7941,-0.7927,-0.7927,-0.7927,-0.7927,-0.7927,0,-0.7746,-0.7757,-0.7765,-0.778,-0.7788,-0.7799,-0.7811,-0.7817,-0.7826,-0.7838,-0.7848,-0.786,-0.7871,-0.7887,-0.79,-0.7903,-0.791,-0.7906,-0.7907,-0.7909,-0.7922,-0.7922,-0.7901,-0.7901,-0.7901,-0.7901,-0.7901,-0.7901,-0.7737,-0.7742,-0.7752,-0.7763,-0.7774,-0.7784,-0.779,-0.78,-0.781,-0.7823,-0.7833,-0.7843,-0.7858,-0.7871,-0.7882,-0.7887,-0.7891,-0.7886,-0.7893,-0.7905,-0.7908,-0.791,-0.791,-0.7887,-0.7887,-0.7879,-0.7879,-0.7879]}]]